Vertical_Velocity
-1 -3 -2 -1 -0 -0 -1 -2 -3 -2 0 1 -5 -2 7 -5 1 0 -0 -1 -2 0 0 1 1 1 1 2 2 1 2 0 1 0 -1 -0 0 1 -1 1 -1 -1 -1 -1
-2 -2 -2 -0 -1 -2 -1 -2 -3 1 -2 2 -8 -1 -0 2 4 1 -2 -1 0 1 1 0 0 3 3 3 3 2 0 1 -0 0 -2 -2 -3 -3 -3 -1 -2 -3 -3 1
-2 1 -0 -0 -1 -2 -1 -2 -1 2 -3 -3 -2 1 -4 0 1 1 -3 -3 -1 -1 1 2 2 3 3 4 1 1 2 1 -0 -2 -2 -0 -1 -2 -3 -2 -2 1 2 -0
-2 -0 -1 -1 -2 -2 0 -3 -3 -0 -1 -4 -5 -5 3 1 3 -4 -3 -1 -3 -2 1 2 -1 -1 2 2 1 -0 0 -1 -0 -2 -1 -2 -2 -2 -1 -2 -1 -2 -2 -2
1 -0 -1 -0 -1 0 2 -3 -1 -1 -3 -6 1 -4 4 1 -1 -0 -1 1 1 -1 -2 -3 1 1 -1 -0 1 1 1 -1 -1 -1 -1 -0 -1 -1 -2 -1 -1 -1 -1 -2
-1 -0 -1 0 -3 -2 -2 -3 -3 -2 -1 -4 1 0 1 -4 1 -2 -1 -2 -2 -2 -1 0 0 -1 -2 -1 0 -0 -1 -0 -1 -3 -1 -0 -0 -1 -2 -1 -2 -2 -3 -1
0 0 -1 -1 1 -0 -2 -3 -2 -3 -2 -3 -1 -4 -4 -0 1 -5 1 -2 -3 -1 0 1 1 -1 -1 0 -0 -1 -1 -1 -2 -0 1 1 0 -2 -1 -1 -0 -2 -1 -0
-1 -0 1 1 0 -0 -2 -0 -1 -3 -2 -1 -2 -4 -1 -1 3 2 1 1 0 1 3 0 0 -1 -1 -1 -2 -2 -1 -1 -1 -1 -1 -1 -2 -2 -2 -1 -1 -1 -2 -1
1 1 -1 -1 -2 -2 2 0 1 -1 -1 -2 -3 -2 -2 -0 -0 1 1 0 -1 1 1 0 -2 -0 -1 -2 -1 0 0 -0 0 0 1 -1 -3 -2 -1 -2 -1 0 1 -1
1 -2 0 -1 -1 -1 0 2 -0 -1 -3 -3 -3 0 -2 -2 -1 1 3 1 2 3 3 1 -1 -1 0 1 -1 -0 0 1 -0 -1 1 0 -3 -2 1 0 -1 0 -2 -1
-0 1 0 2 3 2 2 -1 -1 -1 -3 -3 -0 2 3 -0 0 1 -0 -1 -1 -1 -1 -1 -0 0 1 -1 1 1 0 -0 -1 -1 -1 -1 -1 0 0 1 -0 0 -2 0
1 1 0 -0 -0 -1 -2 -2 -1 -2 1 -1 -1 3 1 1 3 -1 1 3 4 3 1 -2 -2 0 0 0 0 0 -1 -1 -1 -1 -1 -1 -0 -1 1 -0 -1 -0 -0 -3
1 1 -1 0 0 -1 -1 -1 -1 -1 -1 6 -4 5 1 -1 2 -1 1 3 -2 -3 0 -1 -1 -0 -0 -1 -1 -1 -1 -1 -0 -1 0 -1 -0 1 -0 -1 -1 -1 1 -2
-0 2 -1 1 1 -1 2 -0 -1 -2 -2 -2 6 -0 -3 -6 -1 2 2 -2 0 1 -1 -1 -1 -1 1 0 -0 -0 -1 0 1 -1 -0 0 -1 1 0 -1 -1 -2 -2 1
-0 1 -0 -2 -3 -2 1 4 -3 -3 2 -10 13 -7 7 -9 -1 -1 -1 -1 1 -1 -1 0 -2 -2 0 -1 -4 -3 -3 -1 0 -1 -1 1 -1 -1 0 0 -0 -0 -0 -1
-1 -2 -0 7 -5 -2 2 3 0 3 4 -2 -2 9 -2 0 -4 2 2 -1 -2 -1 0 -1 -3 -3 -0 2 -0 -3 -1 -1 -0 -1 -1 -0 -1 -3 -3 -1 1 0 -0 0
1 -3 -4 5 1 -4 -0 2 -1 -2 -3 -4 -3 -3 -1 0 -2 -3 -3 -3 -3 -2 -1 -0 -1 -2 -0 1 2 -1 2 1 -0 1 -1 2 2 1 -0 -1 -1 0 1 3
0 -1 -3 -2 -2 1 0 -3 -2 1 -2 -2 1 -1 -3 -3 -3 2 0 -2 -3 -3 -4 -4 -2 -2 -4 -2 -3 -3 -3 -3 -2 -3 -3 -2 -1 -1 -0 -1 -1 0 -1 -1
1 -1 -4 -6 -4 2 8 -1 -4 -0 6 1 4 0 1 1 1 1 -1 -1 -1 -1 -0 1 -0 -2 0 0 -1 -0 -1 -1 -0 0 -1 -2 -2 -1 -1 -1 0 -2 3 -1
1 1 0 2 -3 -4 8 -0 -1 -1 13 0 -1 1 3 5 3 0 -2 -0 -1 -0 -1 0 -2 -2 1 2 0 0 0 -0 -2 -3 -4 -3 -2 -2 -1 -1 -1 -2 -2 -1
-1 -1 -1 -3 -8 3 4 -2 -5 -3 -3 2 4 3 0 4 -2 6 1 2 -1 -0 -2 -2 1 2 -4 -1 -0 -1 1 2 1 -1 -1 -2 -3 -1 -4 1 -4 -0 1 -2
-1 -3 3 -2 -3 -4 -0 1 -1 -3 -4 0 2 1 1 -0 1 -0 3 3 2 3 -1 -6 1 1 -8 -6 -2 -3 -3 -2 -1 -3 -3 -4 -3 -5 -5 -3 -2 -4 -4 0
-7 2 -5 -2 3 -5 -4 -2 -1 -3 -3 -0 -0 0 -1 1 4 2 -2 -5 -3 -3 -1 -2 -4 -0 -1 -9 -9 -2 -6 -4 -0 -1 2 1 2 -1 -4 -0 -1 2 -4 -5
7 8 -4 -10 23 2 -2 -4 -0 -2 1 2 1 3 -1 -1 -0 2 -1 1 -2 -4 -5 -6 -4 -4 5 -8 -6 -11 -5 -4 -1 1 -1 -2 0 0 -4 -3 -3 -0 -3 -3
24 -2 -0 -7 15 -8 -0 -4 -11 -6 -4 -4 -4 -4 -6 -5 -4 -5 -3 -3 -4 -2 -0 -3 -3 -1 5 1 3 -4 -6 -7 -2 -1 1 -0 -1 -2 3 2 -1 0 3 -9
21 3 -13 -5 -2 -24 8 4 -2 -4 -1 2 -1 -2 -4 -1 -3 -4 -2 -2 -2 -0 -2 -3 -0 -3 0 -1 3 4 -0 -10 -7 -3 -3 -2 -1 3 1 -2 8 4 -7 5
Height
5812 5816 5819 5822 5824 5826 5827 5828 5828 5828 5827 5827 5825 5824 5822 5819 5817 5816 5813 5810 5808 5805 5803 5801 5799 5797 5796 5796 5795 5795 5795 5793 5791 5790 5788 5786 5783 5781 5779 5777 5775 5773 5770 5767
5810 5813 5816 5818 5820 5821 5822 5822 5822 5821 5820 5819 5818 5817 5815 5813 5810 5807 5805 5802 5799 5797 5795 5793 5792 5791 5791 5791 5791 5791 5790 5789 5787 5785 5783 5780 5777 5775 5773 5772 5771 5768 5765 5762
5806 5810 5812 5814 5815 5816 5817 5816 5816 5816 5815 5814 5812 5810 5807 5805 5803 5800 5797 5794 5792 5790 5789 5788 5787 5787 5787 5787 5787 5787 5786 5784 5782 5780 5778 5775 5773 5770 5769 5768 5767 5764 5761 5758
5804 5806 5808 5809 5810 5811 5811 5810 5810 5810 5810 5808 5806 5804 5801 5799 5797 5794 5791 5789 5787 5785 5784 5783 5784 5784 5785 5785 5784 5783 5781 5779 5778 5776 5773 5770 5767 5766 5765 5763 5761 5759 5756 5752
5801 5802 5803 5804 5805 5805 5806 5806 5805 5804 5803 5801 5799 5797 5796 5794 5792 5790 5788 5785 5782 5780 5780 5780 5781 5782 5782 5782 5780 5778 5776 5774 5773 5771 5768 5765 5763 5761 5760 5758 5755 5753 5750 5747
5796 5797 5799 5799 5800 5801 5801 5800 5798 5798 5796 5795 5793 5792 5791 5789 5787 5786 5785 5782 5778 5777 5777 5777 5779 5780 5779 5778 5776 5774 5772 5770 5768 5766 5763 5760 5757 5755 5754 5752 5749 5746 5743 5740
5793 5794 5794 5795 5795 5795 5795 5793 5792 5792 5790 5789 5788 5788 5786 5784 5782 5782 5781 5778 5776 5775 5776 5776 5776 5775 5774 5773 5770 5768 5766 5764 5762 5759 5756 5754 5752 5750 5748 5746 5743 5740 5736 5733
5788 5790 5789 5789 5789 5789 5788 5788 5787 5786 5786 5786 5784 5783 5782 5780 5778 5777 5776 5775 5774 5774 5773 5772 5771 5770 5768 5766 5764 5761 5759 5757 5755 5752 5749 5747 5745 5743 5741 5739 5736 5734 5730 5726
5783 5783 5783 5783 5783 5784 5783 5783 5783 5782 5782 5781 5781 5780 5778 5776 5774 5773 5773 5772 5771 5770 5769 5767 5766 5764 5761 5759 5756 5754 5752 5750 5748 5745 5742 5740 5737 5736 5733 5731 5729 5726 5722 5718
5779 5778 5778 5779 5779 5779 5779 5780 5779 5778 5777 5777 5776 5774 5773 5771 5771 5771 5770 5768 5767 5765 5763 5761 5758 5756 5754 5751 5748 5746 5744 5742 5739 5736 5734 5732 5730 5728 5725 5723 5720 5716 5713 5710
5774 5775 5777 5776 5776 5775 5776 5775 5775 5774 5773 5772 5771 5771 5769 5768 5767 5766 5765 5763 5761 5758 5756 5753 5750 5748 5746 5742 5740 5738 5735 5733 5730 5728 5726 5724 5721 5718 5715 5713 5709 5706 5703 5699
5772 5772 5772 5772 5772 5771 5771 5771 5770 5769 5769 5766 5765 5767 5764 5763 5762 5760 5758 5757 5754 5751 5748 5745 5742 5741 5737 5734 5731 5728 5725 5723 5721 5719 5717 5714 5711 5708 5705 5702 5699 5696 5693 5689
5769 5769 5769 5768 5769 5767 5767 5766 5764 5763 5761 5761 5758 5760 5757 5755 5753 5752 5751 5749 5746 5743 5740 5736 5734 5731 5729 5726 5723 5721 5717 5715 5712 5710 5707 5704 5701 5698 5695 5692 5688 5684 5682 5678
5765 5765 5764 5764 5763 5762 5762 5760 5758 5756 5755 5754 5753 5751 5749 5745 5742 5743 5742 5738 5736 5733 5730 5727 5724 5721 5719 5717 5715 5712 5709 5705 5702 5699 5696 5693 5689 5685 5682 5680 5677 5674 5670 5667
5760 5760 5759 5757 5756 5756 5755 5754 5750 5748 5746 5744 5745 5744 5738 5736 5734 5731 5730 5729 5726 5723 5720 5718 5715 5711 5708 5706 5703 5699 5696 5693 5690 5687 5683 5681 5678 5673 5670 5667 5663 5661 5658 5655
5753 5753 5752 5751 5747 5746 5747 5746 5743 5740 5738 5735 5732 5735 5727 5726 5723 5721 5718 5717 5715 5711 5708 5705 5701 5698 5696 5694 5691 5688 5685 5682 5678 5675 5672 5668 5664 5660 5657 5653 5649 5646 5643 5640
5745 5743 5742 5743 5739 5737 5738 5736 5732 5730 5727 5724 5724 5723 5718 5716 5712 5709 5709 5707 5704 5700 5696 5693 5690 5687 5684 5681 5678 5675 5671 5668 5664 5660 5657 5653 5650 5646 5643 5639 5635 5631 5627 5624
5736 5732 5730 5730 5728 5726 5728 5726 5721 5717 5717 5713 5713 5710 5708 5706 5703 5701 5698 5694 5690 5688 5685 5682 5679 5676 5671 5668 5665 5661 5657 5654 5650 5646 5642 5638 5634 5630 5626 5622 5618 5615 5611 5607
5725 5723 5719 5717 5717 5714 5718 5712 5709 5707 5707 5704 5701 5697 5697 5695 5692 5689 5684 5682 5678 5674 5670 5666 5663 5659 5656 5653 5650 5645 5641 5636 5632 5628 5623 5619 5615 5611 5607 5602 5599 5595 5591 5587
5714 5710 5708 5705 5701 5700 5705 5700 5697 5693 5694 5692 5688 5685 5682 5680 5678 5676 5671 5666 5662 5658 5654 5651 5647 5642 5639 5636 5631 5627 5622 5619 5614 5609 5604 5599 5594 5590 5586 5582 5578 5574 5570 5566
5706 5701 5698 5695 5689 5691 5692 5687 5684 5682 5679 5675 5674 5671 5668 5666 5663 5660 5657 5653 5648 5643 5639 5635 5630 5626 5622 5617 5612 5607 5602 5598 5593 5588 5583 5578 5573 5569 5564 5560 5555 5551 5547 5543
5696 5691 5688 5684 5681 5679 5677 5674 5670 5666 5661 5659 5655 5653 5651 5649 5646 5643 5639 5636 5633 5630 5625 5619 5614 5608 5601 5596 5591 5586 5582 5578 5573 5567 5561 5556 5551 5546 5542 5538 5534 5530 5525 5521
5685 5682 5678 5675 5671 5667 5660 5654 5650 5647 5645 5642 5639 5636 5633 5629 5626 5624 5620 5616 5612 5608 5603 5598 5595 5590 5583 5576 5571 5566 5561 5556 5550 5544 5540 5535 5531 5526 5521 5517 5512 5508 5504 5500
5670 5667 5664 5661 5659 5652 5647 5639 5633 5628 5625 5623 5619 5616 5612 5608 5604 5601 5596 5593 5589 5583 5578 5574 5570 5566 5561 5552 5548 5543 5538 5534 5530 5526 5521 5516 5512 5507 5501 5496 5491 5487 5482 5480
5655 5653 5649 5642 5639 5632 5627 5622 5618 5616 5612 5606 5601 5596 5592 5588 5585 5580 5574 5569 5564 5558 5554 5549 5544 5541 5537 5531 5526 5518 5514 5510 5508 5505 5500 5495 5491 5486 5483 5478 5472 5468 5463 5457
5640 5635 5626 5621 5614 5608 5609 5605 5602 5596 5592 5587 5582 5577 5572 5568 5563 5558 5553 5548 5543 5538 5532 5527 5524 5520 5515 5510 5505 5498 5489 5484 5485 5484 5479 5473 5468 5464 5460 5456 5455 5448 5443 5438